Ontario, OR

1:30 PM MDT on September 30, 2016 (GMT -0600)
Ontario Municipal

Weather History for KONO - April, 2014

Change the Weather History Date:

Saturday, April 26, 2014

  Actual Average Record
Temperature  
Mean Temperature 48 °F 53 °F  
Max Temperature 59 °F 68 °F 88 °F (1987)
Min Temperature 37 °F 38 °F 27 °F (2008)
Degree Days  
Heating Degree Days 17 12  
Month to date heating degree days 340 395  
Since 1 July heating degree days 5684 5695  
Cooling Degree Days 0 0  
Month to date cooling degree days 0 0  
Year to date cooling degree days 0 0  
Moisture  
Dew Point 31 °F    
Average Humidity 55    
Maximum Humidity 79    
Minimum Humidity 30    
Precipitation  
Precipitation T in 0.02 in 0.54 in (2012)
Month to date precipitation 1.11 0.68  
Year to date precipitation 4.29 3.67  
Sea Level Pressure  
Sea Level Pressure 29.73 in    
Wind  
Wind Speed 9 mph (WNW)    
Max Wind Speed 24 mph    
Max Gust Speed 31 mph    
Visibility 10 miles    
Events      
T = Trace of Precipitation, MM = Missing Value Source: NWS Daily Summary

Daily Weather History Graph

Daily Weather History Graph

Search for Another Location

Airport or City:

Trip Planner

Search our weather history database for the weather conditions in past years. The results will help you decide how hot, cold, wet, or windy it might be!

Date:

Astronomy

Apr. 26, 2014 Rise Set
Actual Time 6:46 AM MDT 8:45 PM MDT
Civil Twilight 6:15 AM MDT 9:16 PM MDT
Nautical Twilight 5:37 AM MDT 9:55 PM MDT
Astronomical Twilight 4:55 AM MDT 10:37 PM MDT
Moon 5:20 AM MDT (4/26) 6:13 PM MDT (4/26)
Length of Visible Light 15h 01m
Length of Day
13h 58m
Waning Crescent, 8% of the Moon is Illuminated
Apr 26
Waning Crescent
Apr 29
New
May 6
First Quarter
May 14
Full
May 21
Last Quarter

Hourly Weather History & Observations

Time (MDT) Temp. Windchill Dew Point Humidity Pressure Visibility Wind Dir Wind Speed Gust Speed Precip Events Conditions
12:53 AM 44.1 °F 37.4 °F 33.1 °F 65% 29.69 in 10.0 mi WNW 13.8 mph - N/A   Clear
1:53 AM 44.1 °F 37.4 °F 32.0 °F 63% 29.69 in 10.0 mi NW 13.8 mph - N/A   Clear
2:53 AM 39.9 °F 35.8 °F 33.1 °F 77% 29.70 in 10.0 mi WSW 5.8 mph - N/A   Clear
3:53 AM 39.9 °F 35.1 °F 33.1 °F 77% 29.72 in 10.0 mi WSW 6.9 mph - N/A   Overcast
4:53 AM 39.9 °F 33.4 °F 32.0 °F 73% 29.72 in 10.0 mi WSW 10.4 mph - N/A   Clear
5:53 AM 41.0 °F 35.2 °F 32.0 °F 70% 29.72 in 10.0 mi West 9.2 mph - N/A   Partly Cloudy
6:53 AM 39.0 °F 32.8 °F 30.9 °F 73% 29.73 in 10.0 mi West 9.2 mph - N/A   Clear
7:53 AM 39.9 °F 34.5 °F 30.9 °F 70% 29.73 in 10.0 mi West 8.1 mph - N/A   Clear
8:53 AM 44.1 °F 39.5 °F 34.0 °F 68% 29.75 in 10.0 mi WSW 8.1 mph - N/A   Clear
9:53 AM 50.0 °F - 33.1 °F 52% 29.75 in 10.0 mi WNW 13.8 mph - N/A   Clear
10:53 AM 52.0 °F - 30.9 °F 45% 29.74 in 10.0 mi WNW 16.1 mph - N/A   Clear
11:53 AM 54.0 °F - 33.1 °F 45% 29.73 in 10.0 mi NW 18.4 mph - N/A   Scattered Clouds
12:53 PM 55.9 °F - 30.0 °F 37% 29.72 in 10.0 mi WNW 15.0 mph 23.0 mph N/A   Clear
1:53 PM 55.0 °F - 28.9 °F 37% 29.71 in 10.0 mi WNW 10.4 mph 23.0 mph N/A   Mostly Cloudy
2:53 PM 57.9 °F - 27.0 °F 31% 29.72 in 10.0 mi West 9.2 mph 20.7 mph N/A   Scattered Clouds
3:53 PM 57.0 °F - 27.0 °F 32% 29.72 in 10.0 mi NW 9.2 mph - N/A   Mostly Cloudy
4:53 PM 55.9 °F - 25.0 °F 30% 29.73 in 10.0 mi WSW 9.2 mph 18.4 mph N/A   Overcast
5:53 PM 55.9 °F - 28.0 °F 34% 29.73 in 10.0 mi NNE 4.6 mph - 0.00 in   Partly Cloudy
6:29 PM 57.9 °F - 28.9 °F 33% 29.72 in 10.0 mi NW 8.1 mph - N/A   Scattered Clouds
6:53 PM 57.0 °F - 27.0 °F 32% 29.74 in 10.0 mi NW 6.9 mph - N/A   Clear
7:53 PM 54.0 °F - 28.9 °F 38% 29.74 in 10.0 mi NW 8.1 mph - N/A   Scattered Clouds
8:53 PM 48.9 °F - 28.9 °F 46% 29.76 in 10.0 mi NNW 10.4 mph - N/A   Partly Cloudy
9:53 PM 44.1 °F - 32.0 °F 63% 29.78 in 10.0 mi Calm Calm - N/A   Clear
10:53 PM 42.1 °F - 32.0 °F 67% 29.80 in 10.0 mi Calm Calm - N/A   Clear
11:53 PM 39.0 °F 36.8 °F 32.0 °F 76% 29.80 in 10.0 mi West 3.5 mph - N/A   Clear